Location: Gombori
(14.9797°N, 2.9419°W)
Time: 09:53:19
(UTC+00:00)

MetOp-A - Pass Details

Date: 29 July 2021
Orbit: 819 x 821 km, 98.5° (Epoch: 22 September)

Event Time Altitude Azimuth Distance (km) Brightness Sun altitude
Exits shadow 19:57:37 16° 164° (SSE) 2,046 5.8 -17.6°
Maximum altitude 20:02:02 82° 78° (ENE) 830 4.0 -18.6°
Drops below altitude 10° 20:07:23 10° 350° (N) 2,412 7.0 -19.7°
Sets 20:09:43 0° 350° (N) 3,345 7.8 -20.2°
